timestamp,surface_pressure_avg,surface_temp_avg,battery_voltage,lat,long
2020-12-08 00:09:01+00:00,249.3714,6.53,12.49,47.84626,-54.09684
2020-12-08 00:19:01+00:00,248.7015,6.53,12.49,47.84626,-54.09684
2020-12-08 00:29:01+00:00,250.4564,6.53,12.49,47.84626,-54.09684
2020-12-08 00:39:01+00:00,251.4998,6.53,12.49,47.84626,-54.09684
2020-12-08 00:49:01+00:00,249.2797,6.54,12.49,47.84626,-54.09684
2020-12-08 00:59:01+00:00,246.5198,6.54,12.49,47.84626,-54.09684
2020-12-08 01:09:01+00:00,251.4131,6.53,12.49,47.84626,-54.09684
2020-12-08 01:19:01+00:00,254.8381,6.53,12.49,47.84626,-54.09684
2020-12-08 01:29:01+00:00,255.3081,6.53,12.49,47.84626,-54.09684
2020-12-08 01:39:01+00:00,258.0314,6.52,12.49,47.84626,-54.09684
2020-12-08 01:49:01+00:00,264.0514,6.52,12.49,47.84626,-54.09684
2020-12-08 01:59:01+00:00,267.2281,6.53,12.49,47.84626,-54.09684
2020-12-08 02:09:01+00:00,271.3364,6.52,12.49,47.84626,-54.09684
2020-12-08 02:19:01+00:00,278.3364,6.52,12.49,47.84626,-54.09684
2020-12-08 02:29:01+00:00,281.5098,6.5,12.49,47.84626,-54.09684
2020-12-08 02:39:01+00:00,284.408,6.5,12.49,47.84626,-54.09684
2020-12-08 02:49:01+00:00,288.77299999999997,6.5,12.49,47.84626,-54.09684
2020-12-08 02:59:01+00:00,298.113,6.5,12.49,47.84626,-54.09684
2020-12-08 03:09:01+00:00,304.848,6.5,12.49,47.84626,-54.09684
2020-12-08 03:19:01+00:00,309.3513,6.5,12.49,47.84626,-54.09684
2020-12-08 03:29:01+00:00,313.878,6.5,12.49,47.84626,-54.09684
2020-12-08 03:39:01+00:00,318.5229,6.53,12.49,47.84626,-54.09684
2020-12-08 03:49:01+00:00,321.2596,6.55,12.49,47.84626,-54.09684
2020-12-08 03:59:01+00:00,324.0797,6.56,12.49,47.84626,-54.09684
2020-12-08 04:09:01+00:00,328.5564,6.56,12.49,47.84626,-54.09684
2020-12-08 04:19:01+00:00,331.5113,6.56,12.49,47.84626,-54.09684
2020-12-08 04:29:01+00:00,336.6979,6.56,12.49,47.84626,-54.09684
2020-12-08 04:39:01+00:00,337.9696,6.56,12.49,47.84626,-54.09684
2020-12-08 04:49:01+00:00,336.3263,6.57,12.49,47.84626,-54.09684
2020-12-08 04:59:01+00:00,339.3613,6.57,12.49,47.84626,-54.09684
2020-12-08 05:09:01+00:00,340.2346,6.57,12.49,47.84626,-54.09684
2020-12-08 05:19:01+00:00,336.8646,6.56,12.49,47.84626,-54.09684
2020-12-08 05:29:01+00:00,336.898,6.57,12.49,47.84626,-54.09684
2020-12-08 05:39:01+00:00,341.3829,6.56,12.49,47.84626,-54.09684
2020-12-08 05:49:01+00:00,340.1546,6.57,12.49,47.84626,-54.09684
2020-12-08 05:59:01+00:00,336.1313,6.56,12.49,47.84626,-54.09684
2020-12-08 06:09:01+00:00,340.5046,6.55,12.49,47.84626,-54.09684
2020-12-08 06:19:01+00:00,342.3063,6.56,12.49,47.84626,-54.09684
2020-12-08 06:29:01+00:00,332.0730000000001,6.54,12.49,47.84626,-54.09684
2020-12-08 06:39:01+00:00,322.4347,6.54,12.49,47.84626,-54.09684
2020-12-08 06:49:01+00:00,323.8246,6.56,12.49,47.84626,-54.09684
2020-12-08 06:59:01+00:00,322.9396,6.56,12.49,47.84626,-54.09684
2020-12-08 07:09:01+00:00,310.0063,6.5,12.49,47.84626,-54.09684
2020-12-08 07:19:01+00:00,308.0431,6.53,12.49,47.84626,-54.09684
2020-12-08 07:29:01+00:00,306.5413,6.56,12.49,47.84626,-54.09684
2020-12-08 07:39:01+00:00,296.188,6.5,12.49,47.84626,-54.09684
2020-12-08 07:49:01+00:00,285.3231,6.5,12.49,47.84626,-54.09684
2020-12-08 07:59:01+00:00,283.303,6.5,12.49,47.84626,-54.09684
2020-12-08 08:09:01+00:00,279.3698,6.5,12.49,47.84626,-54.09684
2020-12-08 08:19:01+00:00,269.7764,6.4,12.41,47.84626,-54.09684
2020-12-08 08:29:01+00:00,266.6847,6.4,12.41,47.84626,-54.09684
2020-12-08 08:39:01+00:00,268.1214,6.4,12.41,47.84626,-54.09684
2020-12-08 08:49:01+00:00,259.6113,6.4,12.41,47.84626,-54.09684
2020-12-08 08:59:01+00:00,245.3831,6.4,12.41,47.84626,-54.09684
2020-12-08 09:09:01+00:00,243.1231,6.38,12.41,47.84626,-54.09684
2020-12-08 09:19:01+00:00,249.4847,6.38,12.41,47.84626,-54.09684
2020-12-08 09:29:01+00:00,246.7814,6.37,12.41,47.84626,-54.09684
2020-12-08 09:39:01+00:00,238.7714,6.38,12.41,47.84626,-54.09684
2020-12-08 09:49:01+00:00,236.3864,6.4,12.41,47.84626,-54.09684
2020-12-08 09:59:01+00:00,240.4248,6.4,12.41,47.84626,-54.09684
2020-12-08 10:09:01+00:00,236.0914,6.34,12.41,47.84626,-54.09684
2020-12-08 10:19:01+00:00,230.5864,6.3,12.41,47.84626,-54.09684
2020-12-08 10:29:01+00:00,233.2264,6.3,12.41,47.84626,-54.09684
2020-12-08 10:39:01+00:00,234.8981,6.3,12.41,47.84626,-54.09684
2020-12-08 10:49:01+00:00,231.0414,6.3,12.41,47.84626,-54.09684
2020-12-08 10:59:01+00:00,231.3381,6.38,12.41,47.84626,-54.09684
2020-12-08 11:09:01+00:00,232.9714,6.37,12.41,47.84626,-54.09684
2020-12-08 11:19:01+00:00,230.9031,6.36,12.41,47.84626,-54.09684
2020-12-08 11:29:01+00:00,229.1298,6.39,12.41,47.84626,-54.09684
2020-12-08 11:39:01+00:00,233.7798,6.39,12.41,47.84626,-54.09684
2020-12-08 11:49:01+00:00,236.9464,6.3,12.41,47.84626,-54.09684
2020-12-08 11:59:01+00:00,241.0714,6.29,12.41,47.84626,-54.09684
2020-12-08 12:09:01+00:00,241.3264,6.34,12.41,47.84626,-54.09684
2020-12-08 12:19:01+00:00,242.9897,6.38,12.49,47.84626,-54.09684
2020-12-08 12:29:01+00:00,245.0981,6.38,12.49,47.84626,-54.09684
2020-12-08 12:39:01+00:00,247.3531,6.4,12.49,47.84626,-54.09684
2020-12-08 12:49:01+00:00,245.2297,6.4,12.49,47.84626,-54.09684
2020-12-08 12:59:01+00:00,242.2397,6.38,12.49,47.84626,-54.09684
2020-12-08 13:09:01+00:00,242.6447,6.4,12.49,47.84626,-54.09684
2020-12-08 13:19:01+00:00,245.6331,6.46,13.68,47.84626,-54.09684
2020-12-08 13:29:01+00:00,252.1181,6.5,13.68,47.84626,-54.09684
2020-12-08 13:39:01+00:00,253.5914,6.4,13.68,47.84626,-54.09684
2020-12-08 13:49:01+00:00,257.6565,6.47,13.68,47.84626,-54.09684
2020-12-08 13:59:01+00:00,264.5247,6.5,13.68,47.84626,-54.09684
2020-12-08 14:09:01+00:00,263.053,6.5,13.68,47.84626,-54.09684
2020-12-08 14:19:01+00:00,261.1164,6.52,13.44,47.84626,-54.09684
2020-12-08 14:29:01+00:00,268.8931,6.54,13.44,47.84626,-54.09684
2020-12-08 14:39:01+00:00,278.698,6.5,13.44,47.84626,-54.09684
2020-12-08 14:49:01+00:00,281.613,6.52,13.44,47.84626,-54.09684
2020-12-08 14:59:01+00:00,285.428,6.52,13.44,47.84626,-54.09684
2020-12-08 15:09:01+00:00,297.658,6.54,13.44,47.84626,-54.09684
2020-12-08 15:19:01+00:00,309.1947,6.55,13.29,47.84626,-54.09684
2020-12-08 15:29:01+00:00,307.1413,6.57,13.29,47.84626,-54.09684
2020-12-08 15:39:01+00:00,310.3047,6.58,13.29,47.84626,-54.09684
2020-12-08 15:49:01+00:00,319.3213,6.59,13.29,47.84626,-54.09684
2020-12-08 15:59:01+00:00,327.1331,6.59,13.29,47.84626,-54.09684
2020-12-08 16:09:01+00:00,320.168,6.6,13.29,47.84626,-54.09684
2020-12-08 16:19:01+00:00,324.703,6.6,13.13,47.84626,-54.09684
2020-12-08 16:29:01+00:00,334.7913,6.6,13.13,47.84626,-54.09684
2020-12-08 16:39:01+00:00,333.6714,6.6,13.13,47.84626,-54.09684
2020-12-08 16:49:01+00:00,336.6746,6.6,13.13,47.84626,-54.09684
2020-12-08 16:59:01+00:00,350.7063,6.6,13.13,47.84626,-54.09684
2020-12-08 17:09:01+00:00,361.0879,6.6,13.13,47.84626,-54.09684
2020-12-08 17:19:01+00:00,355.528,6.6,13.05,47.84626,-54.09684
2020-12-08 17:29:01+00:00,357.0345,6.6,13.05,47.84626,-54.09684
2020-12-08 17:39:01+00:00,362.2346,6.6,13.05,47.84626,-54.09684
2020-12-08 17:49:01+00:00,357.7063,6.6,13.05,47.84626,-54.09684
2020-12-08 17:59:01+00:00,351.293,6.6,13.05,47.84626,-54.09684
2020-12-08 18:09:01+00:00,355.4829,6.57,13.05,47.84626,-54.09684
2020-12-08 18:19:01+00:00,357.5464,6.59,12.97,47.84626,-54.09684
2020-12-08 18:29:01+00:00,351.2896,6.6,12.97,47.84626,-54.09684
2020-12-08 18:39:01+00:00,354.5562,6.59,12.97,47.84626,-54.09684
2020-12-08 18:49:01+00:00,360.3013,6.59,12.97,47.84626,-54.09684
2020-12-08 18:59:01+00:00,346.9863,6.6,12.97,47.84626,-54.09684
2020-12-08 19:09:01+00:00,339.7663,6.6,12.97,47.84626,-54.09684
2020-12-08 19:19:01+00:00,342.913,6.6,12.89,47.84626,-54.09684
2020-12-08 19:29:01+00:00,335.8896,6.6,12.89,47.84626,-54.09684
2020-12-08 19:39:01+00:00,328.8079,6.6,12.89,47.84626,-54.09684
2020-12-08 19:49:01+00:00,331.61800000000005,6.6,12.89,47.84626,-54.09684
2020-12-08 19:59:01+00:00,328.343,6.6,12.89,47.84626,-54.09684
2020-12-08 20:09:01+00:00,314.5464,6.58,12.89,47.84626,-54.09684
2020-12-08 20:19:01+00:00,305.0596,6.59,12.81,47.84626,-54.09684
2020-12-08 20:29:01+00:00,304.0314,6.59,12.81,47.84626,-54.09684
2020-12-08 20:39:01+00:00,300.0264,6.6,12.81,47.84626,-54.09684
2020-12-08 20:49:01+00:00,305.9447,6.6,12.81,47.84626,-54.09684
2020-12-08 20:59:01+00:00,300.5664,6.6,12.81,47.84626,-54.09684
2020-12-08 21:09:01+00:00,290.6747,6.5,12.81,47.84626,-54.09684
2020-12-08 21:19:01+00:00,279.3947,6.27,12.81,47.84626,-54.09684
2020-12-08 21:29:01+00:00,285.0114,6.26,12.81,47.84626,-54.09684
2020-12-08 21:39:01+00:00,278.4264,6.49,12.81,47.84626,-54.09684
2020-12-08 21:49:01+00:00,264.6481,6.44,12.81,47.84626,-54.09684
2020-12-08 21:59:01+00:00,263.8664,6.4,12.81,47.84626,-54.09684
2020-12-08 22:09:01+00:00,262.248,6.26,12.81,47.84626,-54.09684
2020-12-08 22:19:01+00:00,255.6814,6.55,12.81,47.84626,-54.09684
2020-12-08 22:29:01+00:00,256.3831,6.59,12.81,47.84626,-54.09684
2020-12-08 22:39:01+00:00,265.2964,6.6,12.81,47.84626,-54.09684
2020-12-08 22:49:01+00:00,257.1564,6.6,12.81,47.84626,-54.09684
2020-12-08 22:59:01+00:00,251.0764,6.6,12.81,47.84626,-54.09684
2020-12-08 23:09:01+00:00,255.6798,6.6,12.81,47.84626,-54.09684
2020-12-08 23:19:01+00:00,266.2497,6.4,12.73,47.84626,-54.09684
2020-12-08 23:29:01+00:00,254.4364,6.54,12.73,47.84626,-54.09684
2020-12-08 23:39:01+00:00,261.2414,6.6,12.73,47.84626,-54.09684
2020-12-08 23:49:01+00:00,267.1598,6.6,12.73,47.84626,-54.09684
2020-12-08 23:59:01+00:00,257.8714,6.6,12.73,47.84626,-54.09684
